Location: Alsip
(41.6689°N, 87.7387°W)
Time: 13:57:34
(UTC+00:00)

XW-2B - Pass Details

Date: 22 October 2021
Orbit: 504 x 522 km, 97.5° (Epoch: 04 December)

Event Time Altitude Azimuth Distance (km) Brightness Sun altitude
Rises 11:02:23 0° 28° (NNE) 2,613 ? -13.6°
Reaches altitude 10° 11:04:56 10° 47° (NE) 1,724 ? -13.1°
Maximum altitude 11:07:39 19° 94° (E) 1,245 ? -12.6°
Drops below altitude 10° 11:10:22 10° 141° (SE) 1,717 ? -12.1°
Sets 11:12:54 0° 160° (SSE) 2,598 ? -11.6°
